"Time","Value","Approval","myLocation"
"2023-05-06 00:00",4.903,"Approved","OW423"
"2023-05-06 01:00",4.897,"Approved","OW423"
"2023-05-06 02:00",4.897,"Approved","OW423"
"2023-05-06 03:00",4.893,"Approved","OW423"
"2023-05-06 04:00",4.888,"Approved","OW423"
"2023-05-06 05:00",4.884,"Approved","OW423"
"2023-05-06 06:00",4.885,"Approved","OW423"
"2023-05-06 07:00",4.882,"Approved","OW423"
"2023-05-06 08:00",4.877,"Approved","OW423"
"2023-05-06 09:00",4.874,"Approved","OW423"
"2023-05-06 10:00",4.872,"Approved","OW423"
"2023-05-06 11:00",4.869,"Approved","OW423"
"2023-05-06 12:00",4.866,"Approved","OW423"
"2023-05-06 13:00",4.857,"Approved","OW423"
"2023-05-06 14:00",4.849,"Approved","OW423"
"2023-05-06 15:00",4.85,"Approved","OW423"
"2023-05-06 16:00",4.843,"Approved","OW423"
"2023-05-06 17:00",4.835,"Approved","OW423"
"2023-05-06 18:00",4.835,"Approved","OW423"
"2023-05-06 19:00",4.831,"Approved","OW423"
"2023-05-06 20:00",4.829,"Approved","OW423"
"2023-05-06 21:00",4.828,"Approved","OW423"
"2023-05-06 22:00",4.821,"Approved","OW423"
"2023-05-06 23:00",4.817,"Approved","OW423"
"2023-05-07 00:00",4.816,"Approved","OW423"
"2023-05-07 01:00",4.81,"Approved","OW423"
"2023-05-07 02:00",4.809,"Approved","OW423"
"2023-05-07 03:00",4.799,"Approved","OW423"
"2023-05-07 04:00",4.802,"Approved","OW423"
"2023-05-07 05:00",4.795,"Approved","OW423"
"2023-05-07 06:00",4.788,"Approved","OW423"
"2023-05-07 07:00",4.787,"Approved","OW423"
"2023-05-07 08:00",4.783,"Approved","OW423"
"2023-05-07 09:00",4.782,"Approved","OW423"
"2023-05-07 10:00",4.772,"Approved","OW423"
"2023-05-07 11:00",4.771,"Approved","OW423"
"2023-05-07 12:00",4.765,"Approved","OW423"
"2023-05-07 13:00",4.761,"Approved","OW423"
"2023-05-07 14:00",4.756,"Approved","OW423"
"2023-05-07 15:00",4.752,"Approved","OW423"
"2023-05-07 16:00",4.744,"Approved","OW423"
"2023-05-07 17:00",4.742,"Approved","OW423"
"2023-05-07 18:00",4.733,"Approved","OW423"
"2023-05-07 19:00",4.73,"Approved","OW423"
"2023-05-07 20:00",4.725,"Approved","OW423"
"2023-05-07 21:00",4.724,"Approved","OW423"
"2023-05-07 22:00",4.721,"Approved","OW423"
"2023-05-07 23:00",4.715,"Approved","OW423"
"2023-05-08 00:00",4.716,"Approved","OW423"
"2023-05-08 01:00",4.706,"Approved","OW423"
"2023-05-08 02:00",4.704,"Approved","OW423"
"2023-05-08 03:00",4.704,"Approved","OW423"
"2023-05-08 04:00",4.695,"Approved","OW423"
"2023-05-08 05:00",4.687,"Approved","OW423"
"2023-05-08 06:00",4.686,"Approved","OW423"
"2023-05-08 07:00",4.682,"Approved","OW423"
"2023-05-08 08:00",4.681,"Approved","OW423"
"2023-05-08 09:00",4.675,"Approved","OW423"
"2023-05-08 10:00",4.672,"Approved","OW423"
"2023-05-08 11:00",4.667,"Approved","OW423"
"2023-05-08 12:00",4.664,"Approved","OW423"
"2023-05-08 13:00",4.658,"Approved","OW423"
"2023-05-08 14:00",4.651,"Approved","OW423"
"2023-05-08 15:00",4.645,"Approved","OW423"
"2023-05-08 16:00",4.633,"Approved","OW423"
"2023-05-08 17:00",4.627,"Approved","OW423"
"2023-05-08 18:00",4.623,"Approved","OW423"
"2023-05-08 19:00",4.619,"Approved","OW423"
"2023-05-08 20:00",4.607,"Approved","OW423"
"2023-05-08 21:00",4.601,"Approved","OW423"
"2023-05-08 22:00",4.593,"Approved","OW423"
"2023-05-08 23:00",4.588,"Approved","OW423"
"2023-05-09 00:00",4.579,"Approved","OW423"
"2023-05-09 01:00",4.576,"Approved","OW423"
"2023-05-09 02:00",4.568,"Approved","OW423"
"2023-05-09 03:00",4.562,"Approved","OW423"
"2023-05-09 04:00",4.554,"Approved","OW423"
"2023-05-09 05:00",4.546,"Approved","OW423"
"2023-05-09 06:00",4.536,"Approved","OW423"
"2023-05-09 07:00",4.528,"Approved","OW423"
"2023-05-09 08:00",4.52,"Approved","OW423"
"2023-05-09 09:00",4.51,"Approved","OW423"
"2023-05-09 10:00",4.503,"Approved","OW423"
"2023-05-09 11:00",4.495,"Approved","OW423"
"2023-05-09 12:00",4.483,"Approved","OW423"
"2023-05-09 13:00",4.473,"Approved","OW423"
"2023-05-09 14:00",4.466,"Approved","OW423"
"2023-05-09 15:00",4.459,"Approved","OW423"
"2023-05-09 16:00",4.451,"Approved","OW423"
"2023-05-09 17:00",4.444,"Approved","OW423"
"2023-05-09 18:00",4.43,"Approved","OW423"
"2023-05-09 19:00",4.422,"Approved","OW423"
"2023-05-09 20:00",4.418,"Approved","OW423"
"2023-05-09 21:00",4.41,"Approved","OW423"
"2023-05-09 22:00",4.405,"Approved","OW423"
"2023-05-09 23:00",4.404,"Approved","OW423"
"2023-05-10 00:00",4.396,"Approved","OW423"
"2023-05-10 01:00",4.389,"Approved","OW423"
"2023-05-10 02:00",4.385,"Approved","OW423"
"2023-05-10 03:00",4.376,"Approved","OW423"
"2023-05-10 04:00",4.371,"Approved","OW423"
"2023-05-10 05:00",4.369,"Approved","OW423"
"2023-05-10 06:00",4.362,"Approved","OW423"
"2023-05-10 07:00",4.357,"Approved","OW423"
"2023-05-10 08:00",4.35,"Approved","OW423"
"2023-05-10 09:00",4.342,"Approved","OW423"
"2023-05-10 10:00",4.335,"Approved","OW423"
"2023-05-10 11:00",4.334,"Approved","OW423"
"2023-05-10 12:00",4.326,"Approved","OW423"
"2023-05-10 13:00",4.32,"Approved","OW423"
"2023-05-10 14:00",4.316,"Approved","OW423"
"2023-05-10 15:00",4.314,"Approved","OW423"
"2023-05-10 16:00",4.304,"Approved","OW423"
"2023-05-10 17:00",4.306,"Approved","OW423"
"2023-05-10 18:00",4.301,"Approved","OW423"
"2023-05-10 19:00",4.297,"Approved","OW423"
"2023-05-10 20:00",4.289,"Approved","OW423"
"2023-05-10 21:00",4.289,"Approved","OW423"
"2023-05-10 22:00",4.283,"Approved","OW423"
"2023-05-10 23:00",4.286,"Approved","OW423"
"2023-05-11 00:00",4.279,"Approved","OW423"
"2023-05-11 01:00",4.277,"Approved","OW423"
"2023-05-11 02:00",4.273,"Approved","OW423"
"2023-05-11 03:00",4.27,"Approved","OW423"
"2023-05-11 04:00",4.266,"Approved","OW423"
"2023-05-11 05:00",4.264,"Approved","OW423"
"2023-05-11 06:00",4.26,"Approved","OW423"
"2023-05-11 07:00",4.254,"Approved","OW423"
"2023-05-11 08:00",4.247,"Approved","OW423"
"2023-05-11 09:00",4.247,"Approved","OW423"
"2023-05-11 10:00",4.243,"Approved","OW423"
"2023-05-11 11:00",4.24,"Approved","OW423"
"2023-05-11 12:00",4.235,"Approved","OW423"
"2023-05-11 13:00",4.236,"Approved","OW423"
"2023-05-11 14:00",4.229,"Approved","OW423"
"2023-05-11 15:00",4.226,"Approved","OW423"
"2023-05-11 16:00",4.222,"Approved","OW423"
"2023-05-11 17:00",4.221,"Approved","OW423"
"2023-05-11 18:00",4.221,"Approved","OW423"
"2023-05-11 19:00",4.216,"Approved","OW423"
"2023-05-11 20:00",4.214,"Approved","OW423"
"2023-05-11 21:00",4.213,"Approved","OW423"
"2023-05-11 22:00",4.211,"Approved","OW423"
"2023-05-11 23:00",4.205,"Approved","OW423"
"2023-05-12 00:00",4.205,"Approved","OW423"
"2023-05-12 01:00",4.201,"Approved","OW423"
"2023-05-12 02:00",4.198,"Approved","OW423"
"2023-05-12 03:00",4.198,"Approved","OW423"
"2023-05-12 04:00",4.191,"Approved","OW423"
"2023-05-12 05:00",4.187,"Approved","OW423"
"2023-05-12 06:00",4.187,"Approved","OW423"
"2023-05-12 07:00",4.183,"Approved","OW423"
"2023-05-12 08:00",4.18,"Approved","OW423"
"2023-05-12 09:00",4.177,"Approved","OW423"
"2023-05-12 10:00",4.173,"Approved","OW423"
"2023-05-12 11:00",4.169,"Approved","OW423"
"2023-05-12 12:00",4.167,"Approved","OW423"
"2023-05-12 13:00",4.159,"Approved","OW423"
"2023-05-12 14:00",4.16,"Approved","OW423"
"2023-05-12 15:00",4.159,"Approved","OW423"
"2023-05-12 16:00",4.155,"Approved","OW423"
"2023-05-12 17:00",4.153,"Approved","OW423"
"2023-05-12 18:00",4.15,"Approved","OW423"
"2023-05-12 19:00",4.145,"Approved","OW423"
"2023-05-12 20:00",4.145,"Approved","OW423"
"2023-05-12 21:00",4.138,"Approved","OW423"
"2023-05-12 22:00",4.139,"Approved","OW423"
"2023-05-12 23:00",4.136,"Approved","OW423"
"2023-05-13 00:00",4.134,"Approved","OW423"
"2023-05-13 01:00",4.132,"Approved","OW423"
"2023-05-13 02:00",4.129,"Approved","OW423"
"2023-05-13 03:00",4.129,"Approved","OW423"
"2023-05-13 04:00",4.123,"Approved","OW423"
"2023-05-13 05:00",4.125,"Approved","OW423"
"2023-05-13 06:00",4.124,"Approved","OW423"
"2023-05-13 07:00",4.119,"Approved","OW423"
"2023-05-13 08:00",4.115,"Approved","OW423"
"2023-05-13 09:00",4.112,"Approved","OW423"
"2023-05-13 10:00",4.105,"Approved","OW423"
"2023-05-13 11:00",4.106,"Approved","OW423"
"2023-05-13 12:00",4.1,"Approved","OW423"
"2023-05-13 13:00",4.104,"Approved","OW423"
"2023-05-13 14:00",4.1,"Approved","OW423"
"2023-05-13 15:00",4.099,"Approved","OW423"
"2023-05-13 16:00",4.099,"Approved","OW423"
"2023-05-13 17:00",4.094,"Approved","OW423"
"2023-05-13 18:00",4.09,"Approved","OW423"
"2023-05-13 19:00",4.089,"Approved","OW423"
"2023-05-13 20:00",4.089,"Approved","OW423"
"2023-05-13 21:00",4.087,"Approved","OW423"
"2023-05-13 22:00",4.084,"Approved","OW423"
"2023-05-13 23:00",4.079,"Approved","OW423"
"2023-05-14 00:00",4.083,"Approved","OW423"
"2023-05-14 01:00",4.075,"Approved","OW423"
"2023-05-14 02:00",4.074,"Approved","OW423"
"2023-05-14 03:00",4.074,"Approved","OW423"
"2023-05-14 04:00",4.069,"Approved","OW423"
"2023-05-14 05:00",4.072,"Approved","OW423"
"2023-05-14 06:00",4.067,"Approved","OW423"
"2023-05-14 07:00",4.067,"Approved","OW423"
"2023-05-14 08:00",4.059,"Approved","OW423"
"2023-05-14 09:00",4.061,"Approved","OW423"
"2023-05-14 10:00",4.056,"Approved","OW423"
"2023-05-14 11:00",4.054,"Approved","OW423"
"2023-05-14 12:00",4.051,"Approved","OW423"
"2023-05-14 13:00",4.05,"Approved","OW423"
"2023-05-14 14:00",4.045,"Approved","OW423"
"2023-05-14 15:00",4.047,"Approved","OW423"
"2023-05-14 16:00",4.042,"Approved","OW423"
"2023-05-14 17:00",4.04,"Approved","OW423"
"2023-05-14 18:00",4.039,"Approved","OW423"
"2023-05-14 19:00",4.041,"Approved","OW423"
"2023-05-14 20:00",4.037,"Approved","OW423"
"2023-05-14 21:00",4.038,"Approved","OW423"
"2023-05-14 22:00",4.037,"Approved","OW423"
"2023-05-14 23:00",4.031,"Approved","OW423"
"2023-05-15 00:00",4.03,"Approved","OW423"
"2023-05-15 01:00",4.026,"Approved","OW423"
"2023-05-15 02:00",4.022,"Approved","OW423"
"2023-05-15 03:00",4.025,"Approved","OW423"
"2023-05-15 04:00",4.02,"Approved","OW423"
"2023-05-15 05:00",4.019,"Approved","OW423"
"2023-05-15 06:00",4.016,"Approved","OW423"
"2023-05-15 07:00",4.017,"Approved","OW423"
"2023-05-15 08:00",4.014,"Approved","OW423"
"2023-05-15 09:00",4.016,"Approved","OW423"
"2023-05-15 10:00",4.011,"Approved","OW423"
"2023-05-15 11:00",4.01,"Approved","OW423"
"2023-05-15 12:00",4.009,"Approved","OW423"
"2023-05-15 13:00",4.005,"Approved","OW423"
"2023-05-15 14:00",4.001,"Approved","OW423"
"2023-05-15 15:00",4,"Approved","OW423"
"2023-05-15 16:00",4.002,"Approved","OW423"
"2023-05-15 17:00",3.998,"Approved","OW423"
"2023-05-15 18:00",3.994,"Approved","OW423"
"2023-05-15 19:00",3.994,"Approved","OW423"
"2023-05-15 20:00",3.992,"Approved","OW423"
"2023-05-15 21:00",3.995,"Approved","OW423"
"2023-05-15 22:00",3.995,"Approved","OW423"
"2023-05-15 23:00",3.993,"Approved","OW423"
"2023-05-16 00:00",3.992,"Approved","OW423"
"2023-05-16 01:00",3.99,"Approved","OW423"
"2023-05-16 02:00",3.988,"Approved","OW423"
"2023-05-16 03:00",3.986,"Approved","OW423"
"2023-05-16 04:00",3.985,"Approved","OW423"
"2023-05-16 05:00",3.986,"Approved","OW423"
"2023-05-16 06:00",3.982,"Approved","OW423"
"2023-05-16 07:00",3.987,"Approved","OW423"
"2023-05-16 08:00",3.985,"Approved","OW423"
"2023-05-16 09:00",3.983,"Approved","OW423"
"2023-05-16 10:00",3.981,"Approved","OW423"
"2023-05-16 11:00",3.976,"Approved","OW423"
"2023-05-16 12:00",3.978,"Approved","OW423"
"2023-05-16 13:00",3.972,"Approved","OW423"
"2023-05-16 14:00",3.975,"Approved","OW423"
"2023-05-16 15:00",3.975,"Approved","OW423"
"2023-05-16 16:00",3.972,"Approved","OW423"
"2023-05-16 17:00",3.974,"Approved","OW423"
"2023-05-16 18:00",3.973,"Approved","OW423"
"2023-05-16 19:00",3.974,"Approved","OW423"
"2023-05-16 20:00",3.979,"Approved","OW423"
"2023-05-16 21:00",3.981,"Approved","OW423"
"2023-05-16 22:00",3.979,"Approved","OW423"
"2023-05-16 23:00",3.979,"Approved","OW423"
"2023-05-17 00:00",3.976,"Approved","OW423"
"2023-05-17 01:00",3.975,"Approved","OW423"
"2023-05-17 02:00",3.976,"Approved","OW423"
"2023-05-17 03:00",3.974,"Approved","OW423"
"2023-05-17 04:00",3.973,"Approved","OW423"
"2023-05-17 05:00",3.973,"Approved","OW423"
"2023-05-17 06:00",3.978,"Approved","OW423"
"2023-05-17 07:00",3.977,"Approved","OW423"
"2023-05-17 08:00",3.977,"Approved","OW423"
"2023-05-17 09:00",3.971,"Approved","OW423"
"2023-05-17 10:00",3.972,"Approved","OW423"
"2023-05-17 11:00",3.967,"Approved","OW423"
"2023-05-17 12:00",3.963,"Approved","OW423"
"2023-05-17 13:00",3.965,"Approved","OW423"
"2023-05-17 14:00",3.958,"Approved","OW423"
"2023-05-17 15:00",3.955,"Approved","OW423"
"2023-05-17 16:00",3.956,"Approved","OW423"
"2023-05-17 17:00",3.953,"Approved","OW423"
"2023-05-17 18:00",3.954,"Approved","OW423"
"2023-05-17 19:00",3.953,"Approved","OW423"
"2023-05-17 20:00",3.957,"Approved","OW423"
"2023-05-17 21:00",3.957,"Approved","OW423"
"2023-05-17 22:00",3.962,"Approved","OW423"
"2023-05-17 23:00",3.957,"Approved","OW423"
"2023-05-18 00:00",3.958,"Approved","OW423"
"2023-05-18 01:00",3.955,"Approved","OW423"
"2023-05-18 02:00",3.954,"Approved","OW423"
"2023-05-18 03:00",3.953,"Approved","OW423"
"2023-05-18 04:00",3.954,"Approved","OW423"
"2023-05-18 05:00",3.956,"Approved","OW423"
"2023-05-18 06:00",3.958,"Approved","OW423"
"2023-05-18 07:00",3.959,"Approved","OW423"
"2023-05-18 08:00",3.959,"Approved","OW423"
"2023-05-18 09:00",3.959,"Approved","OW423"
"2023-05-18 10:00",3.959,"Approved","OW423"
"2023-05-18 11:00",3.957,"Approved","OW423"
"2023-05-18 12:00",3.955,"Approved","OW423"
"2023-05-18 13:00",3.951,"Approved","OW423"
"2023-05-18 14:00",3.952,"Approved","OW423"
"2023-05-18 15:00",3.95,"Approved","OW423"
"2023-05-18 16:00",3.953,"Approved","OW423"
"2023-05-18 17:00",3.95,"Approved","OW423"
"2023-05-18 18:00",3.954,"Approved","OW423"
"2023-05-18 19:00",3.958,"Approved","OW423"
"2023-05-18 20:00",3.956,"Approved","OW423"
"2023-05-18 21:00",3.96,"Approved","OW423"
"2023-05-18 22:00",3.963,"Approved","OW423"
"2023-05-18 23:00",3.966,"Approved","OW423"
"2023-05-19 00:00",3.966,"Approved","OW423"
"2023-05-19 01:00",3.963,"Approved","OW423"
"2023-05-19 02:00",3.967,"Approved","OW423"
"2023-05-19 03:00",3.967,"Approved","OW423"
"2023-05-19 04:00",3.969,"Approved","OW423"
"2023-05-19 05:00",3.971,"Approved","OW423"
"2023-05-19 06:00",3.969,"Approved","OW423"
"2023-05-19 07:00",3.973,"Approved","OW423"
"2023-05-19 08:00",3.976,"Approved","OW423"
"2023-05-19 09:00",3.979,"Approved","OW423"
"2023-05-19 10:00",3.979,"Approved","OW423"
"2023-05-19 11:00",3.979,"Approved","OW423"
"2023-05-19 12:00",3.978,"Approved","OW423"
"2023-05-19 13:00",3.978,"Approved","OW423"
"2023-05-19 14:00",3.98,"Approved","OW423"
"2023-05-19 15:00",3.982,"Approved","OW423"
"2023-05-19 16:00",3.976,"Approved","OW423"
"2023-05-19 17:00",3.98,"Approved","OW423"
"2023-05-19 18:00",3.976,"Approved","OW423"
"2023-05-19 19:00",3.98,"Approved","OW423"
"2023-05-19 20:00",3.986,"Approved","OW423"
"2023-05-19 21:00",3.99,"Approved","OW423"
"2023-05-19 22:00",3.992,"Approved","OW423"
"2023-05-19 23:00",3.995,"Approved","OW423"
"2023-05-20 00:00",3.998,"Approved","OW423"
"2023-05-20 01:00",3.996,"Approved","OW423"
"2023-05-20 02:00",4.002,"Approved","OW423"
"2023-05-20 03:00",4.005,"Approved","OW423"
"2023-05-20 04:00",4,"Approved","OW423"
"2023-05-20 05:00",4.008,"Approved","OW423"
"2023-05-20 06:00",4.01,"Approved","OW423"
"2023-05-20 07:00",4.007,"Approved","OW423"
"2023-05-20 08:00",4.007,"Approved","OW423"
"2023-05-20 09:00",4.011,"Approved","OW423"
"2023-05-20 10:00",4.011,"Approved","OW423"
"2023-05-20 11:00",4.011,"Approved","OW423"
"2023-05-20 12:00",4.012,"Approved","OW423"
"2023-05-20 13:00",4.011,"Approved","OW423"
"2023-05-20 14:00",4.012,"Approved","OW423"
"2023-05-20 15:00",4.012,"Approved","OW423"
"2023-05-20 16:00",4.015,"Approved","OW423"
"2023-05-20 17:00",4.014,"Approved","OW423"
"2023-05-20 18:00",4.015,"Approved","OW423"
"2023-05-20 19:00",4.014,"Approved","OW423"
"2023-05-20 20:00",4.02,"Approved","OW423"
"2023-05-20 21:00",4.023,"Approved","OW423"
"2023-05-20 22:00",4.026,"Approved","OW423"
"2023-05-20 23:00",4.027,"Approved","OW423"
"2023-05-21 00:00",4.03,"Approved","OW423"
"2023-05-21 01:00",4.033,"Approved","OW423"
"2023-05-21 02:00",4.034,"Approved","OW423"
"2023-05-21 03:00",4.03,"Approved","OW423"
"2023-05-21 04:00",4.033,"Approved","OW423"
"2023-05-21 05:00",4.031,"Approved","OW423"
"2023-05-21 06:00",4.036,"Approved","OW423"
"2023-05-21 07:00",4.04,"Approved","OW423"
"2023-05-21 08:00",4.039,"Approved","OW423"
"2023-05-21 09:00",4.042,"Approved","OW423"
"2023-05-21 10:00",4.04,"Approved","OW423"
"2023-05-21 11:00",4.044,"Approved","OW423"
"2023-05-21 12:00",4.045,"Approved","OW423"
"2023-05-21 13:00",4.044,"Approved","OW423"
"2023-05-21 14:00",4.042,"Approved","OW423"
"2023-05-21 15:00",4.044,"Approved","OW423"
"2023-05-21 16:00",4.043,"Approved","OW423"
"2023-05-21 17:00",4.042,"Approved","OW423"
"2023-05-21 18:00",4.051,"Approved","OW423"
"2023-05-21 19:00",4.054,"Approved","OW423"
"2023-05-21 20:00",4.058,"Approved","OW423"
"2023-05-21 21:00",4.058,"Approved","OW423"
"2023-05-21 22:00",4.058,"Approved","OW423"
"2023-05-21 23:00",4.061,"Approved","OW423"
"2023-05-22 00:00",4.065,"Approved","OW423"
"2023-05-22 01:00",4.062,"Approved","OW423"
"2023-05-22 02:00",4.063,"Approved","OW423"
"2023-05-22 03:00",4.063,"Approved","OW423"
"2023-05-22 04:00",4.063,"Approved","OW423"
"2023-05-22 05:00",4.067,"Approved","OW423"
"2023-05-22 06:00",4.069,"Approved","OW423"
"2023-05-22 07:00",4.07,"Approved","OW423"
"2023-05-22 08:00",4.069,"Approved","OW423"
"2023-05-22 09:00",4.071,"Approved","OW423"
"2023-05-22 10:00",4.069,"Approved","OW423"
"2023-05-22 11:00",4.074,"Approved","OW423"
"2023-05-22 12:00",4.074,"Approved","OW423"
"2023-05-22 13:00",4.075,"Approved","OW423"
"2023-05-22 14:00",4.072,"Approved","OW423"
"2023-05-22 15:00",4.073,"Approved","OW423"
"2023-05-22 16:00",4.067,"Approved","OW423"
"2023-05-22 17:00",4.063,"Approved","OW423"
"2023-05-22 18:00",4.068,"Approved","OW423"
"2023-05-22 19:00",4.069,"Approved","OW423"
"2023-05-22 20:00",4.073,"Approved","OW423"
"2023-05-22 21:00",4.072,"Approved","OW423"
"2023-05-22 22:00",4.072,"Approved","OW423"
"2023-05-22 23:00",4.071,"Approved","OW423"
"2023-05-23 00:00",4.069,"Approved","OW423"
"2023-05-23 01:00",4.073,"Approved","OW423"
"2023-05-23 02:00",4.067,"Approved","OW423"
"2023-05-23 03:00",4.075,"Approved","OW423"
"2023-05-23 04:00",4.074,"Approved","OW423"
"2023-05-23 05:00",4.074,"Approved","OW423"
"2023-05-23 06:00",4.071,"Approved","OW423"
"2023-05-23 07:00",4.078,"Approved","OW423"
"2023-05-23 08:00",4.078,"Approved","OW423"
"2023-05-23 09:00",4.076,"Approved","OW423"
"2023-05-23 10:00",4.074,"Approved","OW423"
"2023-05-23 11:00",4.072,"Approved","OW423"
"2023-05-23 12:00",4.07,"Approved","OW423"
"2023-05-23 13:00",4.071,"Approved","OW423"
"2023-05-23 14:00",4.069,"Approved","OW423"
"2023-05-23 15:00",4.065,"Approved","OW423"
"2023-05-23 16:00",4.068,"Approved","OW423"
"2023-05-23 17:00",4.068,"Approved","OW423"
"2023-05-23 18:00",4.066,"Approved","OW423"
"2023-05-23 19:00",4.062,"Approved","OW423"
"2023-05-23 20:00",4.063,"Approved","OW423"
"2023-05-23 21:00",4.065,"Approved","OW423"
"2023-05-23 22:00",4.065,"Approved","OW423"
"2023-05-23 23:00",4.064,"Approved","OW423"
"2023-05-24 00:00",4.064,"Approved","OW423"
"2023-05-24 01:00",4.064,"Approved","OW423"
"2023-05-24 02:00",4.062,"Approved","OW423"
"2023-05-24 03:00",4.065,"Approved","OW423"
"2023-05-24 04:00",4.063,"Approved","OW423"
"2023-05-24 05:00",4.064,"Approved","OW423"
"2023-05-24 06:00",4.066,"Approved","OW423"
"2023-05-24 07:00",4.066,"Approved","OW423"
"2023-05-24 08:00",4.065,"Approved","OW423"
"2023-05-24 09:00",4.064,"Approved","OW423"
"2023-05-24 10:00",4.063,"Approved","OW423"
"2023-05-24 11:00",4.067,"Approved","OW423"
"2023-05-24 12:00",4.07,"Approved","OW423"
"2023-05-24 13:00",4.066,"Approved","OW423"
"2023-05-24 14:00",4.064,"Approved","OW423"
"2023-05-24 15:00",4.067,"Approved","OW423"
"2023-05-24 16:00",4.067,"Approved","OW423"
"2023-05-24 17:00",4.061,"Approved","OW423"
"2023-05-24 18:00",4.064,"Approved","OW423"
"2023-05-24 19:00",4.057,"Approved","OW423"
"2023-05-24 20:00",4.067,"Approved","OW423"
"2023-05-24 21:00",4.065,"Approved","OW423"
"2023-05-24 22:00",4.065,"Approved","OW423"
"2023-05-24 23:00",4.065,"Approved","OW423"
"2023-05-25 00:00",4.067,"Approved","OW423"
"2023-05-25 01:00",4.065,"Approved","OW423"
"2023-05-25 02:00",4.066,"Approved","OW423"
"2023-05-25 03:00",4.065,"Approved","OW423"
"2023-05-25 04:00",4.066,"Approved","OW423"
"2023-05-25 05:00",4.068,"Approved","OW423"
"2023-05-25 06:00",4.07,"Approved","OW423"
"2023-05-25 07:00",4.072,"Approved","OW423"
"2023-05-25 08:00",4.07,"Approved","OW423"
"2023-05-25 09:00",4.071,"Approved","OW423"
"2023-05-25 10:00",4.07,"Approved","OW423"
"2023-05-25 11:00",4.074,"Approved","OW423"
"2023-05-25 12:00",4.072,"Approved","OW423"
"2023-05-25 13:00",4.071,"Approved","OW423"
"2023-05-25 14:00",4.073,"Approved","OW423"
"2023-05-25 15:00",4.074,"Approved","OW423"
"2023-05-25 16:00",4.077,"Approved","OW423"
"2023-05-25 17:00",4.072,"Approved","OW423"
"2023-05-25 18:00",4.076,"Approved","OW423"
"2023-05-25 19:00",4.075,"Approved","OW423"
"2023-05-25 20:00",4.077,"Approved","OW423"
"2023-05-25 21:00",4.08,"Approved","OW423"
"2023-05-25 22:00",4.073,"Approved","OW423"
"2023-05-25 23:00",4.079,"Approved","OW423"
"2023-05-26 00:00",4.077,"Approved","OW423"
"2023-05-26 01:00",4.079,"Approved","OW423"
"2023-05-26 02:00",4.076,"Approved","OW423"
"2023-05-26 03:00",4.079,"Approved","OW423"
"2023-05-26 04:00",4.08,"Approved","OW423"
"2023-05-26 05:00",4.082,"Approved","OW423"
"2023-05-26 06:00",4.083,"Approved","OW423"
"2023-05-26 07:00",4.082,"Approved","OW423"
"2023-05-26 08:00",4.084,"Approved","OW423"
"2023-05-26 09:00",4.081,"Approved","OW423"
"2023-05-26 10:00",4.081,"Approved","OW423"
"2023-05-26 11:00",4.082,"Approved","OW423"
"2023-05-26 12:00",4.082,"Approved","OW423"
"2023-05-26 13:00",4.084,"Approved","OW423"
"2023-05-26 14:00",4.082,"Approved","OW423"
"2023-05-26 15:00",4.082,"Approved","OW423"
"2023-05-26 16:00",4.084,"Approved","OW423"
"2023-05-26 17:00",4.082,"Approved","OW423"
"2023-05-26 18:00",4.079,"Approved","OW423"
"2023-05-26 19:00",4.08,"Approved","OW423"
"2023-05-26 20:00",4.085,"Approved","OW423"
"2023-05-26 21:00",4.086,"Approved","OW423"
"2023-05-26 22:00",4.085,"Approved","OW423"
"2023-05-26 23:00",4.09,"Approved","OW423"
"2023-05-27 00:00",4.086,"Approved","OW423"
"2023-05-27 01:00",4.089,"Approved","OW423"
"2023-05-27 02:00",4.092,"Approved","OW423"
"2023-05-27 03:00",4.093,"Approved","OW423"
"2023-05-27 04:00",4.093,"Approved","OW423"
"2023-05-27 05:00",4.093,"Approved","OW423"
"2023-05-27 06:00",4.095,"Approved","OW423"
"2023-05-27 07:00",4.094,"Approved","OW423"
"2023-05-27 08:00",4.091,"Approved","OW423"
"2023-05-27 09:00",4.087,"Approved","OW423"
"2023-05-27 10:00",4.092,"Approved","OW423"
"2023-05-27 11:00",4.097,"Approved","OW423"
"2023-05-27 12:00",4.097,"Approved","OW423"
"2023-05-27 13:00",4.106,"Approved","OW423"
"2023-05-27 14:00",4.105,"Approved","OW423"
"2023-05-27 15:00",4.105,"Approved","OW423"
"2023-05-27 16:00",4.105,"Approved","OW423"
"2023-05-27 17:00",4.108,"Approved","OW423"
"2023-05-27 18:00",4.11,"Approved","OW423"
"2023-05-27 19:00",4.114,"Approved","OW423"
"2023-05-27 20:00",4.115,"Approved","OW423"
"2023-05-27 21:00",4.118,"Approved","OW423"
"2023-05-27 22:00",4.12,"Approved","OW423"
"2023-05-27 23:00",4.118,"Approved","OW423"
"2023-05-28 00:00",4.118,"Approved","OW423"
"2023-05-28 01:00",4.121,"Approved","OW423"
"2023-05-28 02:00",4.123,"Approved","OW423"
"2023-05-28 03:00",4.127,"Approved","OW423"
"2023-05-28 04:00",4.126,"Approved","OW423"